Location: Newark
(55.4390°N, 25.0170°E)
Time: 18:06:32
(UTC+00:00)

Envisat - Pass Details

Date: 10 March 2021
Orbit: 764 x 766 km, 98.1° (Epoch: 17 April)

Event Time Altitude Azimuth Distance (km) Brightness Sun altitude
Rises 02:16:26 0° 28° (NNE) 3,247 7.1 -21.7°
Reaches altitude 10° 02:20:45 10° 64° (ENE) 2,313 6.7 -21.2°
Maximum altitude 02:22:12 11° 80° (E) 2,232 6.5 -21.0°
Drops below altitude 10° 02:23:40 10° 97° (E) 2,307 6.3 -20.8°
Sets 02:27:56 0° 132° (SE) 3,225 6.6 -20.3°
